www.pogodaiklimat.ru

Погода и климат >> Архив погоды >> Индия >> New Delhi


АРХИВ ПОГОДЫ в New Delhi

Время (UTC), дата Ветер
(напр.,м/с)
 
Видим.   Явления Облачность Т
(С)
Тd
(С)
f
(%)
Тe
(С)
Тes
(С)
Комфортность P
(гПа)
Po
(гПа)
Тmin
(С)
Tmax
(С)
R
(мм)
R24
(мм)
S
(см)
21 18.07 штиль 0 2000 м дымка 5/3 1050 м
[Sc Ac trans]
+29.4 +26.3 83 +45 +45 опасность
перегрева
998.9 999.0
00 19.07 штиль 0 2000 м дымка 3/3 1200 м
[Sc]
+28.8 +26.3 86 +44 +44 опасность
перегрева
999.7 1000.0
03 19.07 В 2 2000 м мгла ясно +32.2 +27.0 74 +50 +59 опасность
перегрева
999.9 1000.0 +28.0 +37.0
06 19.07 нст 2 2000 м мгла 6/4 1050 м
[Sc Ac trans]
+36.2 +25.6 55 +51 +62 опасность
перегрева
998.8 999.0
09 19.07 С 2 2000 м мгла 8/4 1050 м
[Cb calv Ac trans]
+38.0 +25.5 49 +52 +58 опасность
перегрева
995.9 996.0
12 19.07 СВ 4 2000 м мгла 8/4 900 м
[Cb calv Ac trans]
+37.4 +25.4 51 +52 +52 опасность
перегрева
993.2 993.0 +38.4
15 19.07 штиль 0 4000 м мгла {гроза, дождь} 9/4 900 м
[Sc Ac trans]
+32.2 +26.4 72 +49 +49 опасность
перегрева
996.5 997.0 0.0
18 19.07 штиль 0 2000 м дымка 9/4 900 м
[Sc Ac trans]
+31.4 +26.7 76 +48 +48 опасность
перегрева
997.3 997.0 0.0
21 19.07 штиль 0 2000 м дымка 9/4 900 м
[Cb calv Ac trans]
+29.6 +26.8 85 +46 +46 опасность
перегрева
996.9 997.0 0.0
00 20.07 В 5 1000 м гроза, ливневой дождь 10/6 600 м
[Cb calv As op]
+26.4 +25.0 92 +38 +38 очень
душно
998.1 998.0 13
03 20.07 В 2 1000 м гроза, ливневой дождь 10/6 450 м
[Frnb As op]
+25.4 +25.1 98 +36 +37 очень
душно
1000.2 1000.0 +25.2 +38.4 26
06 20.07 В 2 1000 м слабый дождь {гроза} 10/6 750 м
[Cb calv Ac trans]
+27.6 +25.9 90 +41 +45 опасность
перегрева
1000.2 1000.0 3
09 20.07 В 1 2000 м дымка {гроза, дождь} 8/4 1050 м
[Sc Ac trans]
+31.0 +26.8 78 +48 +55 опасность
перегрева
996.6 997.0 3
12 20.07 В 2 4000 м мгла 4/3 1200 м
[Sc Ac trans]
+34.0 +27.1 67 +52 +54 опасность
перегрева
993.3 993.0 +34.4 7
15 20.07 СВ 1 2000 м дымка 4/1 1200 м
[Sc Ac trans]
+31.4 +27.3 79 +50 +50 опасность
перегрева
996.9 997.0 3
18 20.07 СВ 2 2000 м дымка 1/0
[Ac trans]
+30.0 +26.9 84 +47 +47 опасность
перегрева
997.5 998.0 3
21 20.07 В 1 2000 м дымка 1/0
[Ac trans]
+29.0 +26.5 86 +44 +44 опасность
перегрева
997.4 997.0 3
00 21.07 штиль 0 2000 м дымка 9/4 1050 м
[Sc Ac trans]
+28.6 +26.4 88 +44 +44 опасность
перегрева
998.0 998.0 3
03 21.07 В 3 2000 м дымка 9/4 1000 м
[Sc Ac trans]
+30.2 +26.6 81 +47 +49 опасность
перегрева
999.2 999.0
06 21.07 СВ 3 2000 м мгла 9/4 1050 м
[Sc Ac trans]
+33.6 +26.7 67 +51 +56 опасность
перегрева
998.9 999.0
12 21.07 В 4 4000 м мгла 9/4 1050 м
[Sc Ac trans]
+35.4 +26.3 59 +51 +52 опасность
перегрева
994.7 995.0 +36.0
15 21.07 В 2 2000 м мгла 6/3 1200 м
[Sc Ac trans]
+32.2 +26.4 72 +49 +49 опасность
перегрева
997.0 997.0
18 21.07 В 4 2000 м мгла 5/3 1200 м
[Sc Ac trans]
+30.8 +24.8 70 +44 +44 опасность
перегрева
997.9 998.0
21 21.07 В 4 2000 м дымка 8/4 1050 м
[Sc Ac trans]
+28.8 +24.8 79 +41 +41 опасность
перегрева
997.1 997.0
00 22.07 В 4 2000 м дымка 9/5 1050 м
[Sc Ac trans]
+28.2 +25.1 83 +41 +41 опасность
перегрева
997.7 998.0
03 22.07 В 2 2000 м дымка 9/5 900 м
[Sc Ac trans]
+29.2 +25.5 80 +43 +45 опасность
перегрева
998.9 999.0 +27.8 +36.0
06 22.07 В 5 4000 м мгла 9/5 900 м
[Sc Ac trans]
+32.8 +26.7 70 +50 +53 опасность
перегрева
998.9 999.0
09 22.07 В 3 4000 м мгла 9/4 900 м
[Cb calv Ac trans]
+34.6 +26.3 62 +51 +55 опасность
перегрева
996.7 997.0
12 22.07 В 1 2000 м в посл. час дождь 9/5 900 м
[Cb calv Ac trans]
+29.2 +27.3 90 +47 +48 опасность
перегрева
996.3 996.0 +34.8 4
15 22.07 В 3 2000 м дымка {дождь} 10/6 750 м
[Cb calv As op]
+28.8 +26.6 88 +45 +45 опасность
перегрева
998.2 998.0 4
18 22.07 В 2 2000 м дымка {гроза, дождь} 9/4 750 м
[Cb calv Ac trans]
+27.6 +26.2 92 +42 +42 опасность
перегрева
999.0 999.0 5
21 22.07 В 3 2000 м дымка {гроза, дождь} 9/4 750 м
[Cb calv Ac trans]
+27.2 +26.1 94 +41 +41 опасность
перегрева
998.5 999.0 5
00 23.07 В 3 2000 м дымка 9/4 900 м
[Sc Ac trans]
+27.0 +25.9 94 +40 +40 очень
душно
997.1 997.0 5
03 23.07 В 3 2000 м дымка 9/5 1050 м
[Sc Ac trans]
+29.2 +25.8 82 +44 +45 опасность
перегрева
997.9 998.0 +26.5 +34.8 5
06 23.07 В 2 2000 м мгла 9/5 900 м
[Sc Ac trans]
+32.4 +26.3 70 +49 +54 опасность
перегрева
997.8 998.0
09 23.07 В 4 2000 м мгла 9/5 900 м
[Cb calv Ac trans]
+34.6 +27.2 66 +53 +56 опасность
перегрева
995.4 995.0
12 23.07 В 2 1000 м слабый дождь 9/6 750 м
[Cb calv As op]
+26.4 +25.8 97 +39 +40 очень
душно
995.4 995.0 +34.6 14
15 23.07 В 1 2000 м дымка {дождь} 9/4 900 м
[Cb calv Ac trans]
+27.4 +26.3 94 +42 +42 опасность
перегрева
996.8 997.0 15
18 23.07 В 3 2000 м дымка 9/4 900 м
[Sc Ac trans]
+27.6 +26.8 95 +43 +43 опасность
перегрева
997.8 998.0 15
21 23.07 В 3 2000 м дымка 9/4 900 м
[Sc Ac trans]
+27.0 +26.4 97 +41 +41 опасность
перегрева
997.3 997.0 15
00 24.07 В 2 2000 м дымка 9/4 900 м
[Cb calv Ac trans]
+26.8 +26.2 97 +41 +41 опасность
перегрева
996.6 997.0 15
03 24.07 В 3 2000 м дымка 9/4 900 м
[Cb calv Ac trans]
+28.8 +26.3 86 +44 +46 опасность
перегрева
997.3 997.0 +26.5 +34.6 15
06 24.07 В 2 2000 м мгла 9/6 900 м
[Cb calv Ac trans]
+32.2 +26.1 70 +48 +53 опасность
перегрева
996.8 997.0
09 24.07 В 4 2000 м дымка {дождь} 9/5 900 м
[Cb calv Ac trans]
+31.2 +26.2 75 +47 +50 опасность
перегрева
995.6 996.0 0.3
12 24.07 В 3 4000 м мгла {дождь} 5/3 1050 м
[Sc Ac trans]
+33.2 +26.0 66 +49 +50 опасность
перегрева
994.0 994.0 +33.4 2
15 24.07 В 1 2000 м дымка 6/3 1200 м
[Sc Ac trans]
+30.0 +26.1 80 +45 +45 опасность
перегрева
996.0 996.0 2
18 24.07 штиль 0 2000 м дымка {дождь} 8/4 900 м
[Cb calv Ac trans]
+27.8 +26.7 94 +43 +43 опасность
перегрева
996.6 997.0 3
21 24.07 В 1 2000 м дымка 10/6 900 м
[Cb calv As op]
+27.2 +26.1 94 +41 +41 опасность
перегрева
996.1 996.0 3
00 25.07 В 2 2000 м дымка 10/6 900 м
[Cb calv As op]
+27.0 +25.6 92 +40 +40 очень
душно
996.4 996.0 3
03 25.07 В 2 2000 м дымка 9/4 900 м
[Sc Ac trans]
+28.6 +26.1 86 +43 +45 опасность
перегрева
997.3 997.0 +26.6 +33.4 3
06 25.07 В 3 2000 м мгла 9/5 900 м
[Cb calv Ac trans]
+32.2 +24.8 65 +45 +50 опасность
перегрева
996.9 997.0
09 25.07 В 2 2000 м дымка {гроза, дождь} 10/6 750 м
[Cb calv As op]
+30.6 +27.6 84 +49 +51 опасность
перегрева
996.1 996.0 1
12 25.07 ЮВ 1 2000 м дымка {гроза, дождь} 10/6 750 м
[Cb calv As op]
+30.8 +25.7 74 +45 +46 опасность
перегрева
995.3 995.0 +32.5
15 25.07 СВ 3 2000 м дождь {гроза} 8/4 900 м
[Sc Ac trans]
+28.0 +26.0 89 +42 +42 опасность
перегрева
997.8 998.0 3
18 25.07 СВ 2 2000 м дымка {гроза, дождь} 9/4 900 м
[Sc Ac trans]
+27.4 +25.7 90 +40 +40 очень
душно
998.8 999.0 3

 

Местоположение метеостанции New Delhi (Delhi, Индия): широта 28.58 долгота 77.20 высота над уровнем моря 216 м.

В архиве по умолчанию представлена погода в New Delhi за последнюю неделю. Архивные данные за месяц целиком и за предыдущие месяцы, начиная с января 2011 года, Вы можете получить, выбрав интересующий диапазон дат из раскрывающегося списка и нажав кнопку "Ввод!".

Внимание! Время в таблицах - всемирное. Для получения местного времени необходимо прибавить поправку, которая в New Delhi равна 5.5 ч.

Смотрите также архив погоды в соседних городах и на ближайших метеорологических станциях:

Погода в New Delhi Airport (Delhi, Индия) (8 км)
Погода в Ridge (Delhi, Индия) (10 км)
Погода в New Delhi Aya Nagar (Delhi, Индия) (13 км)
Погода в Meerut (Uttar Pradesh, Индия) (70 км)
Погода в Karnal (Haryana, Индия) (126 км)
Погода в Hissar (Haryana, Индия) (157 км)
Погода в Pilani (Rajasthan, Индия) (161 км)
Погода в Najibabad (Uttar Pradesh, Индия) (163 км)
Погода в Agra (Uttar Pradesh, Индия) (176 км)
Погода в Ambala (Haryana, Индия) (204 км)

Пояснения к столбцам:

Ветер - указаны скорость ветра в м/с - средняя за 10 мин, порывы в срок и между сроками (в фигурных скобках) и направление, откуда дует ветер: С - северный, СВ - северо-восточный, В - восточный, ЮВ - юго-восточный, Ю - южный, ЮЗ - юго-западный, З - западный, СЗ - северо-западный.
Видимость - горизонтальная дальность видимости в метрах или километрах. При видимости от 1 до 10 км при отсутствии осадков обычно наблюдается дымка, при ухудшении видимости до 1 км и менее - туман. В сухую погоду видимость может ухудшаться дымом, пылью или мглою.
Явления - указаны атмосферные явления, наблюдавшиеся в срок или в последний час перед сроком; фигурными скобками обозначены явления, наблюдавшиеся между сроками (за 1-3 часа до срока); квадратными скобками обозначены град или гололедные отложения с указанием их диаметра в мм.
Облачность - указаны через наклонную черту общая и нижняя облачность в баллах и высота нижней границы облаков в метрах; квадратными скобками обозначены формы облаков: Ci - перистые, Cs - перисто-слоистые, Cc - перисто-кучевые, Ac - высококучевые, As - высокослоистые, Sc - слоисто-кучевые, Ns - слоисто-дождевые, Cu - кучевые, Cb - кучево-дождевые. Подробнее классификацию облаков см. в Атласе облаков (PDF).
T - Температура воздуха - температура, измеренная на высоте 2 м над землей.
Td - Температура точки росы - температура, при понижении до которой содержащийся в воздухе водяной пар достигнет насыщения.
f - Относительная влажность воздуха - влажноcть воздуха, измеренная на высоте 2 м над землей.
Te - Эффективная температура - температура, которую ощущает одетый по сезону человек в тени. Характеристика душности погоды. При расчете учитывается влияние влажности воздуха и скорости ветра на теплоощущения человека.
Tes - Эффективная температура на солнце - температура, которую ощущает человек, с поправкой на солнечный нагрев. Характеристика знойности погоды. Зависит от высоты солнца над горизонтом, облачности и скорости ветра. Ночью, в пасмурную погоду, а также при ветре 12 м/с и более поправка равна нулю.
P - Атмосферное давление - приведенное к уровню моря атмосферное давление.
Po - Атмосферное давление - измеренное на уровне метеостанции атмосферное давление.
Tmin - Минимальная температура - минимум температуры воздуха на высоте 2 м над землей.
Tmax - Максимальная температура - максимум температуры воздуха на высоте 2 м над землей.
R - Количество осадков - Количество выпавших осадков за период времени, мм. При наведении курсора мыши на число - период времени, за который выпало указанное количество осадков.
R24 - Количество осадков - Количество выпавших осадков за 24 часа, мм.
S - Снежный покров - Высота снежного покрова, см. При наведении курсора мыши на число - состояние снежного покрова и степень покрытия местности в баллах.